Simultaneous Nadir Overpasses (SNOs) Predictions

Prediction of SNOs between GOES-16 and LANDSAT-8 Satellite Orbit:

Table of predicted SNOs for the next 14.0 days since TLE Epoch: 5/16/2025
Index Date Time (GOES-16) GOES-16 Lat,Lon LANDSAT-8 Lat,Lon Distance(km) Time Diff (sec)
1 05/18/2025 04:11:02 -0.06, -94.54 0.87, -90.30 483.16 80
2 05/18/2025 16:34:58 0.05, -94.85 0.20, -95.46 69.98 80
3 05/20/2025 16:20:11 0.05, -95.89 -0.69, -92.55 380.18 80
4 05/21/2025 04:44:16 -0.05, -96.13 -0.36, -97.76 184.29 80
5 05/23/2025 04:29:27 -0.05, -97.18 0.42, -94.83 266.40 80
6 05/23/2025 16:53:24 0.04, -97.48 0.58,-100.00 286.59 80
7 05/25/2025 16:38:36 0.04, -98.53 -0.28, -97.09 164.03 80
8 05/26/2025 05:02:41 -0.04, -98.77 -0.76,-102.29 400.31 80
9 05/28/2025 04:47:52 -0.03, -99.81 0.06, -99.37 49.97 80
10 05/30/2025 16:59:40 0.02,-101.16 0.11,-101.62 52.49 80
